Погода в Кастельон-де-ла-Плана

Испания     39°59′06″N   0°02′42″E
темп.,
°C
ветер,
м/с
пор.,
м/с
влажн.,
%
обл.,
%
осадки,
мм/ч
давл.,
гПа
погр.,
м
22 октября, пт
пт2223:00+21св675629 0.0 10181012
02:00+19ссв2448100 0.0 1018336
05:00+19с354833 0.0 1017382
08:00+18ссв244448 0.0 1017251
11:00+20ссв573742 0.0 1019837
14:00+21всв673798 0.0 10181413
17:00+20вюв6653100 0.0 1018775
20:00+19всв3466100 0.9 1020416
23 октября, сб
сб2323:00+18ссв1265100 1.0 1021147
02:00+17с22621 1.1 1021163
05:00+16сз11605 0.0 102056
08:00+15ссз22575 0.0 102161
11:00+18сз11452 0.0 1022287
14:00+21ююв32410 0.0 1021854
17:00+20юв33540 0.0 1020568
20:00+19в12620 0.0 1021698
24 октября, вс
вс2423:00+18с11660 0.0 1022138
02:00+17ссз11690 0.0 102249
05:00+17сз116926 0.0 102150
08:00+16ссз116848 0.0 102243
11:00+18ссз006176 0.0 1023255
14:00+20юв32590 0.0 1022888
17:00+20юв326150 0.0 1021670
20:00+19ю11690 0.0 1022657
25 октября, пн
пн2523:00+18з11730 0.0 1023195
02:00+17зсз11760 0.0 102258
05:00+17сз11740 0.0 102145
08:00+16ссз11730 0.0 102139
11:00+18св11665 0.0 1022377
14:00+20вюв216168 0.0 1022873
17:00+20вюв3263100 0.0 1020777
20:00+19в1165100 0.0 1022613
26 октября, вт
вт2623:00+19ссз1167100 0.0 102374
02:00+18ссз11710 0.0 102350
05:00+17ссз11731 0.0 102277
08:00+16ссз127061 0.0 102271
11:00+18ссв22535 0.0 1024398
14:00+21в445171 0.0 10231139
17:00+20вюв33560 0.0 1021980
20:00+20юв12560 0.0 1022901